Weather History for KMHV - November, 2012

Change the Weather History Date:

Tuesday, November 6, 2012

  Actual Average Record
Temperature  
Mean Temperature 65 °F -  
Max Temperature 80 °F 69 °F 84 °F (1965)
Min Temperature 50 °F 44 °F 28 °F (1977)
Growing Degree Days 15 (Base 50)    
Moisture  
Dew Point 27 °F    
Average Humidity 25    
Maximum Humidity 37    
Minimum Humidity 15    
Precipitation  
Precipitation 0.00 in - - ()
Sea Level Pressure  
Sea Level Pressure 30.15 in    
Wind  
Wind Speed 4 mph (NW)    
Max Wind Speed 12 mph    
Max Gust Speed -    
Visibility 10 miles    
Events      
Averages and records for this station are not official NWS values.
T = Trace of Precipitation, MM = Missing Value Source: NWS Daily Summary

Daily Weather History Graph

Daily Weather History Graph

Search for Another Location

Airport or City:

Trip Planner

Search our weather history database for the weather conditions in past years. The results will help you decide how hot, cold, wet, or windy it might be!

Date:

Astronomy

Nov. 06, 2012 Rise Set
Actual Time 6:18 AM PST 4:53 PM PST
Civil Twilight 5:52 AM PST 5:19 PM PST
Nautical Twilight 5:22 AM PST 5:49 PM PST
Astronomical Twilight 4:52 AM PST 6:19 PM PST
Moon 11:34 PM PST (11/6) 12:15 PM PST (11/6)
Length of Visible Light 11h 27m
Length of Day
10h 34m
Waning Gibbous, 52% of the Moon is Illuminated
Nov 6
Waning Gibbous
Nov 6
Last Quarter
Nov 13
New
Nov 20
First Quarter
Nov 28
Full

Hourly Weather History & Observations

Time (PST) Temp. Dew Point Humidity Pressure Visibility Wind Dir Wind Speed Gust Speed Precip Events Conditions
12:15 AM 57.2 °F 26.6 °F 31% 30.18 in 10.0 mi NNW 8.1 mph - N/A   Clear
12:35 AM 57.2 °F 26.6 °F 31% 30.17 in 10.0 mi NW 8.1 mph - N/A   Clear
12:55 AM 57.2 °F 26.6 °F 31% 30.17 in 10.0 mi WNW 4.6 mph - N/A   Clear
1:15 AM 57.2 °F 26.6 °F 31% 30.18 in 10.0 mi Calm Calm - N/A   Clear
1:35 AM 57.2 °F 26.6 °F 31% 30.18 in 10.0 mi Calm Calm - N/A   Clear
1:55 AM 57.2 °F 26.6 °F 31% 30.18 in 10.0 mi Calm Calm - N/A   Clear
2:10 AM 55.4 °F 26.6 °F 33% 30.18 in 10.0 mi Calm Calm - N/A   Clear
2:35 AM 53.6 °F 26.6 °F 35% 30.18 in 10.0 mi NNW 9.2 mph - N/A   Clear
2:55 AM 53.6 °F 26.6 °F 35% 30.17 in 10.0 mi NW 8.1 mph - N/A   Clear
3:15 AM 53.6 °F 26.6 °F 35% 30.17 in 10.0 mi NW 10.4 mph - N/A   Clear
3:35 AM 53.6 °F 26.6 °F 35% 30.17 in 10.0 mi NW 10.4 mph - N/A   Clear
3:55 AM 53.6 °F 26.6 °F 35% 30.17 in 10.0 mi NNW 8.1 mph - N/A   Clear
4:15 AM 53.6 °F 26.6 °F 35% 30.17 in 10.0 mi NW 8.1 mph - N/A   Clear
4:35 AM 55.4 °F 26.6 °F 33% 30.17 in 10.0 mi NW 8.1 mph - N/A   Clear
4:55 AM 55.4 °F 26.6 °F 33% 30.17 in 10.0 mi NNW 6.9 mph - N/A   Clear
5:15 AM 55.4 °F 26.6 °F 33% 30.18 in 10.0 mi Calm Calm - N/A   Clear
5:35 AM 55.4 °F 26.6 °F 33% 30.18 in 10.0 mi Calm Calm - N/A   Clear
5:55 AM 51.8 °F 24.8 °F 35% 30.18 in 10.0 mi Calm Calm - N/A   Clear
6:15 AM 50.0 °F 24.8 °F 37% 30.18 in 10.0 mi Calm Calm - N/A   Clear
6:35 AM 51.8 °F 24.8 °F 35% 30.19 in 9.0 mi Calm Calm - N/A   Clear
6:55 AM 53.6 °F 24.8 °F 33% 30.20 in 10.0 mi Calm Calm - N/A   Clear
7:15 AM 57.2 °F 26.6 °F 31% 30.20 in 10.0 mi Calm Calm - N/A   Clear
7:35 AM 62.6 °F 26.6 °F 26% 30.21 in 10.0 mi Calm Calm - N/A   Clear
7:55 AM 64.4 °F 28.4 °F 26% 30.21 in 10.0 mi Calm Calm - N/A   Clear
8:15 AM 64.4 °F 28.4 °F 26% 30.21 in 10.0 mi Calm Calm - N/A   Clear
8:35 AM 64.4 °F 28.4 °F 26% 30.21 in 10.0 mi Calm Calm - N/A   Clear
8:55 AM 66.2 °F 28.4 °F 24% 30.21 in 10.0 mi Calm Calm - N/A   Clear
9:15 AM 68.0 °F 28.4 °F 23% 30.21 in 10.0 mi Calm Calm - N/A   Clear
9:35 AM 71.6 °F 28.4 °F 20% 30.21 in 10.0 mi Calm Calm - N/A   Clear
9:55 AM 73.4 °F 26.6 °F 18% 30.21 in 10.0 mi ENE 5.8 mph - N/A   Clear
10:15 AM 75.2 °F 26.6 °F 17% 30.20 in 10.0 mi Calm Calm - N/A   Clear
10:35 AM 75.2 °F 26.6 °F 17% 30.20 in 10.0 mi Calm Calm - N/A   Clear
10:55 AM 77.0 °F 26.6 °F 16% 30.19 in 10.0 mi Calm Calm - N/A   Clear
11:15 AM 77.0 °F 26.6 °F 16% 30.18 in 10.0 mi Calm Calm - N/A   Clear
11:35 AM 77.0 °F 28.4 °F 17% 30.17 in 10.0 mi East 5.8 mph - N/A   Clear
11:55 AM 78.8 °F 28.4 °F 16% 30.16 in 10.0 mi East 4.6 mph - N/A   Clear
12:15 PM 78.8 °F 28.4 °F 16% 30.15 in 10.0 mi Calm Calm - N/A   Clear
12:35 PM 78.8 °F 28.4 °F 16% 30.14 in 10.0 mi ESE 5.8 mph - N/A   Clear
12:55 PM 80.6 °F 28.4 °F 15% 30.14 in 10.0 mi Calm Calm - N/A   Clear
1:15 PM 80.6 °F 28.4 °F 15% 30.13 in 10.0 mi Calm Calm - N/A   Clear
1:35 PM 80.6 °F 28.4 °F 15% 30.12 in 10.0 mi SE 4.6 mph - N/A   Clear
2:15 PM 80.6 °F 28.4 °F 15% 30.11 in 10.0 mi Calm Calm - N/A   Clear
2:35 PM 80.6 °F 28.4 °F 15% 30.11 in 10.0 mi Calm Calm - N/A   Clear
2:55 PM 80.6 °F 28.4 °F 15% 30.11 in 10.0 mi Calm Calm - N/A   Clear
3:15 PM 80.6 °F 28.4 °F 15% 30.11 in 10.0 mi Calm Calm - N/A   Clear
3:35 PM 80.6 °F 28.4 °F 15% 30.10 in 10.0 mi Calm Calm - N/A   Clear
3:55 PM 80.6 °F 28.4 °F 15% 30.10 in 10.0 mi Calm Calm - N/A   Clear
4:15 PM 80.6 °F 28.4 °F 15% 30.10 in 10.0 mi Calm Calm - N/A   Clear
4:35 PM 80.6 °F 28.4 °F 15% 30.09 in 10.0 mi Calm Calm - N/A   Clear
4:55 PM 77.0 °F 28.4 °F 17% 30.09 in 10.0 mi Calm Calm - N/A   Clear
5:15 PM 75.2 °F 28.4 °F 18% 30.10 in 10.0 mi Calm Calm - N/A   Clear
5:35 PM 68.0 °F 26.6 °F 21% 30.10 in 10.0 mi Calm Calm - N/A   Clear
5:55 PM 66.2 °F 24.8 °F 21% 30.10 in 10.0 mi NW 6.9 mph - N/A   Clear
6:15 PM 64.4 °F 26.6 °F 24% 30.10 in 10.0 mi NW 9.2 mph - N/A   Clear
6:35 PM 64.4 °F 26.6 °F 24% 30.10 in 10.0 mi NW 8.1 mph - N/A   Clear
6:55 PM 64.4 °F 26.6 °F 24% 30.10 in 10.0 mi NW 6.9 mph - N/A   Clear
7:15 PM 64.4 °F 26.6 °F 24% 30.10 in 10.0 mi Calm Calm - N/A   Clear
7:35 PM 62.6 °F 28.4 °F 27% 30.10 in 10.0 mi NW 6.9 mph - N/A   Clear
7:55 PM 62.6 °F 28.4 °F 27% 30.11 in 10.0 mi Calm Calm - N/A   Clear
8:15 PM 62.6 °F 28.4 °F 27% 30.11 in 10.0 mi Calm Calm - N/A   Clear
8:35 PM 62.6 °F 28.4 °F 27% 30.11 in 10.0 mi Calm Calm - N/A   Clear
8:55 PM 60.8 °F 28.4 °F 29% 30.11 in 10.0 mi Calm Calm - N/A   Clear
9:15 PM 62.6 °F 28.4 °F 27% 30.12 in 10.0 mi WSW 6.9 mph - N/A   Clear
9:35 PM 62.6 °F 28.4 °F 27% 30.12 in 10.0 mi West 3.5 mph - N/A   Clear
9:55 PM 64.4 °F 28.4 °F 26% 30.12 in 10.0 mi WNW 8.1 mph - N/A   Clear
10:15 PM 66.2 °F 30.2 °F 26% 30.11 in 10.0 mi West 9.2 mph - N/A   Clear
10:35 PM 64.4 °F 30.2 °F 28% 30.11 in 10.0 mi WNW 8.1 mph - N/A   Clear
10:55 PM 68.0 °F 28.4 °F 23% 30.11 in 10.0 mi West 10.4 mph - N/A   Clear
11:15 PM 68.0 °F 30.2 °F 24% 30.11 in 10.0 mi WNW 11.5 mph - N/A   Clear
11:35 PM 68.0 °F 28.4 °F 23% 30.10 in 10.0 mi West 10.4 mph - N/A   Clear
11:55 PM 68.0 °F 28.4 °F 23% 30.10 in 10.0 mi West 10.4 mph - N/A   Clear